Regional Weather Roundup
Issued by NWS

Home | Current Version | Previous Version | Text Only | Print | Product List | Glossary On
Versions: 1 2 3 4 5 6 7 8 9 10 11 12 13 14 15 16 17 18 19 20 21 22 23 24 25 26 27 28 29 30 31 32 33 34 35 36 37 38 39 40 41 42 43 44 45 46 47 48 49 50
000
ASUS44 KLIX 280311
RWRLA
LOUISIANA WEATHER ROUNDUP
NATIONAL WEATHER SERVICE NEW ORLEANS LA
1000 PM CDT MON JUL 27 2015

NOTE: "FAIR" INDICATES FEW OR NO CLOUDS BELOW 12,000 FEET WITH NO
      SIGNIFICANT WEATHER AND/OR OBSTRUCTIONS TO VISIBILITY.
      SKY/WX - SKY CONDITION AND SIGNIFICANT WEATHER.
      TMP - AIR TEMPERATURE.    DP   - DEWPOINT TEMPERATURE.
      RH  - RELATIVE HUMIDITY.  PRES - PRESSURE.
      HX  - HEAT INDEX.         WCI  - WIND CHILL INDEX.

*  THESE STATIONS ARE NOT NWS OR FAA STATIONS AND ARE NOT UNDER
   NWS QUALITY CONTROL.

LAZ040-048-061>063-065-066-069-280400-
SOUTHEAST LOUISIANA

CITY           SKY/WX    TMP DP  RH WIND       PRES   REMARKS
N.O. AUDUBON     N/A     84  75  75 MISG        N/A
N.O. INTL ARPT PTCLDY    84  73  69 S8        29.95R
N.O. LAKEFRONT CLEAR     88  72  58 S7        29.95R
N.O. DOWNTOWN* FAIR      90  73  58 S7        29.96R HX  98
RESERVE*       FAIR      85  73  67 S6        29.95S
SLIDELL        CLEAR     78  74  87 CALM      29.94R
BATON ROUGE    CLEAR     80  72  76 W3        29.95R
BOOTHVILLE     MOCLDY    84  75  74 SE3       29.96S
BELLE CHASSE   PTCLDY    79  74  84 SW5       29.95R
BOGALUSA*        N/A     81  73  76 CALM      29.96R
GALLIANO*      NOT AVBL
NEW ROADS*     FAIR     N/A N/A N/A CALM      29.95R
GONZALES*      FAIR      81  77  89 W3        29.94S
HAMMOND*       CLEAR     82  70  65 CALM      29.97R
HOUMA*         PTCLDY    79  76  90 CALM      29.96R
PORT FOURCHON* CLEAR     86  75  70 S5        29.97R HX  95

$$

LAZ041-044-053-054-280400-
SOUTHWEST LOUISIANA

CITY           SKY/WX    TMP DP  RH WIND       PRES   REMARKS
LAKE CHARLES   PTCLDY    82  75  79 CALM      29.93R
LAFAYETTE      PTCLDY    82  74  76 CALM      29.95R
PATTERSON      CLEAR     81  75  83 S6        29.97R
SALT POINT       N/A     84  76  76 CALM      29.94R
NEW IBERIA     PTCLDY    79  74  84 SW5       29.96R
CHENAULT AIRPK CLEAR     82  75  78 CALM      29.94

$$

LAZ027-028-280400-
CENTRAL LOUISIANA

CITY           SKY/WX    TMP DP  RH WIND       PRES   REMARKS
FORT POLK      CLEAR     84  74  72 S6        29.93R
ALEXANDRIA INT CLEAR     83  77  82 S3        29.91R
ALEXANDRIA     CLEAR     84  75  74 CALM      29.94R

$$

LAZ001-002-280400-
NORTHWEST LOUISIANA

CITY           SKY/WX    TMP DP  RH WIND       PRES   REMARKS
SHREVEPORT     CLEAR     88  73  61 S5        29.91R HX  95
BARKSDALE AFB  CLEAR     85  73  68 SE6       29.91R
DTN SHREVEPORT CLEAR     88  72  58 S5        29.91R

$$

LAZ014-016-280400-
NORTHEAST LOUISIANA

CITY           SKY/WX    TMP DP  RH WIND       PRES   REMARKS
MONROE         CLEAR     79  77  94 CALM      29.93R
TALLULAH       CLEAR     81  75  82 CALM      29.94R

$$



USA.gov is the U.S. government's official web portal to all federal, state and local government web resources and services.